Vorticity
12 12 12 12 13 13 12 11 8 6 4 4 6 10 12 12 11 9 9 9 10 12 12 11 8 6 5 5 6 6 5 4 4 4 4 6 5 4 5 4 5 5 7 13 20 24 22 14 8 4 3 5 5 4 6 7 7 8 9 10 10 12 14 14 12 7 6 5 5 5 8 10 6 2 3 6 6 5 3 3 5 9 9 5 5 11 15 14
11 12 12 13 13 13 13 13 13 11 8 5 4 4 8 11 13 12 10 9 8 10 11 12 12 9 7 5 5 6 6 6 5 4 4 6 4 3 4 5 5 5 5 5 9 15 22 24 20 14 7 4 4 3 4 5 6 7 8 8 10 13 15 14 11 7 8 7 6 7 6 3 -0 -1 2 5 3 1 2 3 4 7 9 7 6 8 11 14
11 11 11 12 12 13 13 13 14 13 12 10 7 4 3 6 9 12 12 11 9 8 9 11 12 12 11 8 6 6 6 7 7 4 4 5 4 4 4 4 5 4 5 5 5 6 10 17 23 26 20 11 6 4 4 4 4 6 7 7 11 12 13 15 10 8 9 6 7 7 4 1 -1 2 4 3 3 3 5 4 1 4 8 7 8 9 5 10
13 13 12 11 11 12 13 13 13 13 14 13 12 9 6 4 4 8 11 12 12 11 9 8 10 11 12 12 9 7 5 7 8 6 5 5 3 4 4 4 5 4 4 4 4 5 4 6 12 20 26 24 17 9 6 4 4 5 5 7 9 9 12 15 9 6 6 5 7 5 4 7 3 2 4 3 6 6 5 3 1 5 8 6 8 10 5 4
13 14 14 14 13 12 12 13 14 13 13 13 13 13 11 7 4 4 6 9 12 13 12 10 9 9 10 12 12 10 8 7 7 6 7 6 3 4 4 4 5 5 4 4 4 4 4 5 5 7 14 22 24 22 15 8 6 5 5 5 5 9 11 8 7 8 5 5 6 5 8 9 3 3 5 6 8 8 6 7 8 9 8 8 8 7 5 3
8 11 13 14 15 14 13 13 14 14 14 13 13 13 13 11 9 6 4 4 7 10 13 13 11 9 9 10 12 12 11 8 6 6 8 7 5 4 5 4 5 5 4 5 5 4 4 4 5 5 7 10 16 24 22 16 11 6 5 5 5 10 10 3 6 9 6 6 5 5 9 6 2 4 4 5 9 7 6 9 12 12 9 9 7 5 4 4
4 5 8 11 13 14 14 13 13 14 15 15 14 14 13 12 12 10 7 4 4 6 9 12 13 13 11 9 10 11 12 12 9 7 9 10 8 5 5 4 4 5 5 5 5 5 5 4 5 5 5 5 8 15 19 21 20 14 8 4 4 6 7 7 8 6 6 8 6 5 7 4 2 5 3 2 6 5 4 8 10 9 8 5 5 5 3 4
5 4 4 6 9 11 13 13 13 13 15 16 16 16 15 13 12 12 11 9 5 4 5 8 10 13 13 12 10 9 12 15 12 9 7 8 9 6 5 5 4 4 5 5 6 6 4 5 5 4 5 5 6 8 10 14 19 22 17 8 4 3 4 7 7 5 6 7 6 7 8 7 4 6 9 5 4 5 3 6 7 8 9 4 3 5 2 3
5 6 6 5 6 8 10 13 13 12 13 14 16 16 17 17 15 13 12 11 10 6 4 5 6 9 12 14 13 11 14 15 11 10 7 6 7 6 5 4 4 4 4 5 4 4 4 6 5 5 6 4 3 4 4 6 11 19 22 15 7 3 4 6 6 6 6 6 8 8 8 11 8 6 10 8 6 6 4 6 6 6 11 7 2 6 6 6
4 6 7 6 6 6 7 10 12 12 11 12 14 15 15 17 18 17 14 12 11 10 8 5 4 5 8 11 14 16 16 12 9 11 12 9 8 9 7 4 3 3 4 4 4 4 5 6 6 4 4 3 4 3 2 3 7 12 17 20 13 4 2 4 5 6 5 4 5 6 7 12 12 8 9 8 7 5 5 8 8 6 10 11 6 4 6 7
5 6 7 7 7 7 7 7 9 12 11 10 12 13 14 15 17 18 17 15 12 11 11 9 6 4 5 7 10 16 17 12 11 11 12 13 10 10 10 8 5 3 3 4 4 4 4 5 3 2 2 3 5 3 3 4 5 7 9 16 20 9 1 0 2 3 4 5 4 5 6 8 12 12 10 9 10 7 2 6 11 10 8 12 11 3 -2 2
7 7 7 7 6 6 7 7 7 9 11 11 10 12 13 12 14 16 17 18 17 14 11 11 11 7 5 4 7 15 14 11 12 9 9 12 11 9 9 11 10 7 5 4 5 5 5 5 1 1 3 3 4 2 3 5 4 6 6 11 19 15 8 2 0 1 -0 2 4 3 4 6 9 14 14 10 10 8 3 2 7 10 9 8 10 8 -0 -1
9 9 9 8 6 5 6 8 7 7 9 11 10 11 12 12 12 12 14 17 18 19 15 12 11 10 10 5 4 8 10 12 14 13 11 10 13 12 9 10 12 11 9 6 6 5 5 4 3 5 4 2 3 2 3 4 2 4 5 7 13 15 15 9 3 3 2 2 2 1 5 7 8 14 15 11 9 10 7 2 2 5 8 7 6 10 6 3
8 8 9 9 7 4 4 6 7 7 7 9 10 9 11 13 12 10 10 12 15 18 19 18 14 11 12 7 4 5 7 8 10 14 14 11 12 14 12 11 10 11 13 12 7 6 6 5 3 3 2 4 5 3 4 3 1 2 2 4 7 10 17 14 9 7 6 6 5 4 6 4 10 17 13 9 9 10 10 6 3 3 6 9 7 7 9 8
6 8 10 11 10 8 6 6 6 7 7 8 10 10 9 10 13 12 9 9 11 13 16 20 19 15 11 6 7 8 6 4 8 14 14 13 12 13 15 14 12 9 9 13 10 7 6 4 3 3 4 7 4 3 4 3 2 2 1 4 4 6 14 14 12 13 10 8 7 9 6 -0 9 19 13 9 8 8 12 9 6 5 6 9 6 5 9 7
5 7 9 10 11 11 10 9 8 7 7 7 8 11 10 9 10 13 12 9 8 8 12 16 18 19 12 5 8 12 10 7 8 11 12 14 14 14 16 13 13 11 8 11 11 9 6 3 4 6 7 5 3 5 5 2 2 2 3 5 3 4 10 11 11 15 15 10 7 8 7 1 8 20 17 11 8 10 13 8 5 6 6 9 8 7 11 8
7 4 4 6 7 10 11 11 10 9 8 7 7 9 11 10 9 10 12 12 9 8 9 11 13 15 11 10 14 14 12 8 5 6 8 11 13 14 14 12 11 12 11 10 11 11 8 7 7 7 7 5 6 6 1 0 3 4 5 5 5 4 6 11 13 14 14 12 10 10 7 2 7 17 18 12 11 16 15 7 7 8 7 14 15 8 9 9
8 5 4 4 5 7 10 12 12 10 9 8 7 8 10 11 10 9 10 12 12 10 9 9 9 8 6 10 15 14 12 8 5 4 3 6 12 12 11 11 9 9 10 7 9 11 9 10 9 7 5 3 3 1 -0 5 8 7 7 7 8 7 7 11 15 15 14 11 9 10 8 5 10 16 15 12 10 15 15 8 10 11 9 11 7 2 4 6
7 6 5 6 6 6 8 12 13 12 10 9 8 8 10 11 11 11 9 10 12 12 10 9 7 5 5 7 9 13 16 13 10 8 5 4 9 13 12 10 8 8 7 5 6 7 7 7 4 2 2 3 5 5 7 11 10 7 8 9 8 9 10 11 15 15 13 12 8 7 8 7 13 17 13 14 13 12 11 7 9 12 10 5 -1 1 5 6
8 7 7 6 6 7 9 11 13 14 13 11 9 8 10 11 12 13 11 9 11 13 13 11 8 4 7 9 7 12 16 16 14 11 10 7 6 9 11 9 7 6 6 7 9 9 8 5 2 3 7 10 9 8 10 10 9 8 7 8 8 9 8 6 14 14 10 13 9 8 11 10 17 19 9 11 16 11 4 4 7 7 7 8 7 9 10 10
8 7 6 6 7 10 12 12 12 13 13 12 11 9 10 11 12 14 12 10 11 14 13 13 10 3 8 13 8 10 13 14 17 15 12 11 7 4 7 10 8 6 7 8 8 8 6 4 6 9 11 12 10 8 9 8 7 7 8 8 6 8 7 4 8 11 10 12 11 10 12 18 28 23 5 1 10 10 4 7 9 4 6 10 9 11 13 11
7 7 6 8 12 14 15 13 11 11 11 12 11 10 10 10 13 14 12 10 11 14 14 15 13 5 10 15 8 8 10 9 14 17 16 12 8 6 9 12 12 11 11 7 5 4 3 7 12 14 13 11 10 9 8 8 8 7 8 8 6 6 8 9 7 5 7 7 11 13 12 25 37 25 3 -9 1 9 8 10 6 1 3 5 5 10 14 9
10 10 10 11 14 15 15 14 11 10 10 11 10 11 11 10 13 14 14 12 10 15 15 15 15 4 6 15 10 8 11 10 11 14 19 16 11 12 10 10 14 16 11 8 9 7 8 13 14 13 12 11 9 9 9 9 9 8 7 7 7 5 6 16 15 9 7 7 14 12 12 35 39 20 4 -9 -4 4 5 10 2 -3 4 1 2 11 14 11
10 11 10 10 11 12 13 12 11 10 9 10 10 11 11 12 15 14 15 13 10 17 16 14 16 7 7 17 13 7 10 11 9 9 15 18 15 12 9 11 13 13 11 12 13 11 11 11 10 10 9 11 9 8 9 8 8 9 7 6 7 4 8 20 20 10 6 8 13 3 4 38 33 6 4 -5 -5 -0 1 11 5 -4 5 4 3 10 13 13
10 10 8 8 8 8 10 10 11 10 10 11 10 12 11 12 15 13 14 14 10 17 18 13 15 9 8 14 11 8 9 11 12 9 9 15 18 14 11 12 8 6 10 11 10 10 9 6 9 10 8 11 9 7 8 8 11 9 7 9 6 5 13 21 18 11 6 5 13 0 -5 32 31 -2 -2 -3 -7 0 1 10 9 0 5 7 7 5 5 13
11 11 10 10 9 9 10 10 10 10 11 11 11 13 12 12 15 12 12 13 11 16 17 12 12 9 9 11 11 10 9 12 15 12 9 12 16 14 13 13 8 9 12 11 11 10 8 6 8 10 9 10 9 9 10 8 9 7 11 14 4 9 22 20 14 9 5 2 13 13 -5 18 36 2 -10 -1 -4 2 7 9 8 2 2 2 4 3 6 21
10 10 10 10 11 10 12 11 11 12 11 12 12 12 12 13 14 12 12 12 13 18 16 13 12 11 13 12 11 10 10 14 17 14 12 15 18 14 12 12 11 13 10 7 10 10 9 8 8 8 8 10 9 10 10 8 6 6 16 16 5 16 26 20 12 4 7 3 4 20 2 3 35 13 -10 2 0 -1 6 5 5 5 1 -2 2 6 6 11
9 9 9 10 10 11 12 12 12 13 11 11 12 11 11 13 13 13 14 15 20 23 17 16 17 13 14 12 11 12 10 13 20 19 14 15 20 16 12 10 9 14 12 7 9 9 10 10 9 8 7 8 8 9 10 6 5 8 14 13 11 21 20 14 11 -1 10 9 -4 16 7 -9 21 15 -9 -3 -6 -5 3 3 7 8 4 2 2 2 2 2
14 13 12 10 10 10 12 12 10 10 11 11 12 11 10 12 12 12 15 16 21 23 16 16 18 14 15 15 15 16 10 9 16 20 15 14 20 20 19 15 9 12 14 13 12 9 10 11 11 11 8 6 7 10 10 5 7 11 11 10 15 21 12 7 10 0 6 6 -11 4 7 -4 13 11 -4 0 -2 -2 4 5 10 8 5 7 -1 -2 8 9
21 20 18 16 14 12 12 12 11 11 12 11 10 10 11 12 12 14 18 18 18 19 16 16 18 16 15 14 16 18 17 16 16 13 11 14 20 21 21 18 13 12 11 13 14 9 9 11 11 13 9 6 8 10 10 6 8 12 9 11 15 18 8 -2 6 8 5 2 -7 1 9 6 15 13 -1 1 6 5 3 3 4 1 2 4 -2 1 8 2
31 28 25 23 20 18 16 13 11 12 11 10 10 11 11 11 12 13 19 21 18 16 14 13 14 16 16 17 17 17 20 21 16 11 10 10 14 17 17 14 11 10 7 8 10 7 6 6 8 12 8 8 9 8 9 8 9 10 9 11 16 18 8 -4 2 3 -2 4 3 7 15 4 5 19 11 1 5 5 3 6 0 -4 0 2 3 5 -0 -4
36 33 28 27 26 23 20 16 13 13 13 11 11 11 10 11 15 17 17 19 16 12 12 12 11 10 11 12 14 17 22 23 16 12 13 11 11 14 17 15 11 9 6 5 8 7 6 5 6 9 9 10 8 6 7 6 7 11 8 8 14 16 7 -0 3 -1 -2 11 9 8 19 5 -7 11 17 10 11 5 -1 2 1 -1 2 4 6 4 2 7
35 34 30 31 34 28 22 19 16 16 17 16 13 12 10 11 17 20 20 18 13 9 12 14 15 16 15 15 15 14 16 20 18 15 15 16 15 13 17 19 16 13 11 9 9 6 5 7 5 4 6 8 7 6 4 2 6 10 7 6 12 14 7 2 4 1 0 9 9 4 13 12 -0 -4 -2 2 8 7 1 -0 -2 -4 -3 0 5 6 12 15
36 36 30 26 30 30 25 21 19 16 15 16 14 11 12 17 19 16 17 19 14 11 14 16 16 19 23 23 20 16 14 14 16 16 15 14 14 10 11 15 14 12 12 12 10 7 5 6 3 1 3 6 8 8 7 10 13 12 10 10 11 12 7 1 1 5 3 1 5 8 7 5 -7 -14 -4 6 5 6 11 12 7 3 2 2 5 9 9 3
36 36 31 22 23 28 24 21 21 17 12 13 12 11 18 25 21 17 19 20 15 12 16 21 18 15 19 19 16 19 20 16 13 14 13 13 15 14 12 13 14 11 8 8 10 10 8 7 8 8 5 5 9 8 8 9 11 14 13 5 6 12 5 -4 -1 7 8 -1 -2 8 8 -3 -15 -14 3 13 7 3 8 14 12 10 11 9 11 12 7 3
35 32 25 19 24 29 24 20 20 19 16 13 11 17 26 23 17 20 22 16 11 10 12 18 19 19 22 21 18 18 19 19 16 11 11 15 18 19 17 15 15 13 9 8 8 9 9 9 11 11 7 5 7 9 8 4 6 13 8 0 12 22 6 -7 1 10 10 5 1 4 3 -5 -7 -2 2 6 9 5 2 5 9 10 9 9 11 8 7 12
34 21 7 12 30 30 22 19 17 19 19 13 15 27 28 17 14 19 16 9 10 10 11 12 14 20 25 23 22 19 16 17 16 10 11 16 16 16 15 15 16 15 13 11 8 10 12 11 10 10 13 12 6 8 13 10 8 7 4 10 24 25 7 -5 2 10 8 4 3 2 1 -2 -3 -1 -1 2 8 9 9 8 9 10 4 1 6 4 4 11
22 8 -5 9 32 27 18 20 15 15 18 16 23 31 21 13 18 14 6 10 9 4 7 8 7 17 23 17 14 14 15 16 13 10 11 14 17 18 14 11 13 16 17 14 10 10 12 14 15 10 12 17 12 6 7 8 9 7 9 21 23 16 14 3 -6 3 5 1 3 2 1 1 -2 -0 4 7 8 14 24 24 15 9 2 -1 6 6 -1 -5
7 10 2 11 29 24 19 21 11 10 18 21 28 27 13 12 17 4 2 13 7 -2 6 5 1 13 18 15 14 12 14 15 12 10 11 12 18 21 17 13 11 13 15 15 11 9 11 13 15 13 13 21 18 5 -1 3 9 9 8 15 18 16 21 14 -2 -1 1 -1 5 5 -2 -3 -1 4 8 11 13 12 12 12 9 8 5 3 7 8 3 -2
15 25 19 24 35 27 23 20 4 4 20 27 30 21 8 13 12 -5 2 16 5 0 8 1 -1 8 13 19 21 16 14 11 8 10 11 12 16 20 21 16 12 12 13 16 15 12 14 11 10 18 16 7 3 5 9 9 6 6 2 4 15 17 19 20 12 6 0 -7 -4 -1 -3 0 7 8 6 6 11 10 3 -1 2 5 6 4 2 3 6 7
26 21 15 27 34 26 28 24 5 10 26 26 22 16 9 14 2 -15 3 16 4 7 11 -1 -3 3 9 18 16 15 20 10 4 9 9 14 21 25 26 19 15 18 14 12 11 9 13 8 4 14 12 -3 -0 11 17 14 8 11 11 8 16 18 13 14 15 14 11 2 -1 4 8 14 15 10 7 6 6 9 8 3 4 6 5 4 3 1 2 1
25 13 13 31 38 32 34 28 16 21 21 9 13 21 17 10 -4 -8 11 13 2 13 19 7 -0 -3 5 17 11 13 22 11 4 6 7 18 25 22 25 27 25 23 14 10 13 14 17 13 4 12 17 11 11 12 12 17 17 16 17 15 16 18 12 6 5 11 15 12 10 9 7 12 13 7 5 5 4 7 7 4 5 7 4 4 8 7 4 1
8 9 18 33 38 32 28 25 21 16 7 8 23 25 9 0 0 8 18 12 5 12 18 18 12 -4 -1 13 12 11 16 13 9 4 6 18 16 3 10 30 39 31 15 9 14 16 15 10 1 6 16 16 17 19 18 22 22 15 14 15 11 13 15 8 2 3 7 14 16 7 -3 -2 4 8 8 7 8 9 1 -3 1 3 4 7 10 13 10 4
9 10 17 25 25 19 18 19 9 1 9 26 29 11 -9 -10 4 13 12 13 16 12 11 21 19 0 -6 6 16 12 9 15 13 3 7 14 8 -0 1 23 44 36 15 7 9 11 11 8 1 -1 5 7 11 18 12 10 17 14 11 13 10 16 22 11 3 2 3 15 20 8 -4 -7 -5 4 10 9 10 11 3 1 6 2 -2 2 3 5 5 2
13 10 10 15 15 12 14 9 1 9 28 32 18 -3 -20 -17 6 18 9 7 17 14 12 21 17 4 -7 -2 17 16 6 18 15 -1 6 10 2 3 3 22 45 33 10 4 6 14 16 11 6 2 3 1 -0 7 5 4 13 13 12 13 7 18 24 7 4 9 3 12 24 14 0 -6 -7 -3 5 8 6 3 0 4 12 7 -3 -1 3 5 7 5
8 10 7 10 14 13 12 9 13 27 29 16 5 -9 -22 -13 11 24 11 1 11 15 12 13 13 13 3 -6 11 17 7 17 15 -2 5 12 5 4 5 24 42 23 2 -2 -1 11 17 8 3 3 7 6 3 10 13 10 11 14 22 20 6 14 19 -0 1 13 6 6 20 24 13 -1 -4 -2 -1 1 -4 -10 -7 -0 7 11 7 7 12 13 13 11
11 15 16 20 21 18 17 17 24 28 15 7 8 -2 -4 6 14 22 17 3 9 17 8 0 2 15 19 3 2 13 11 16 16 2 1 6 6 5 6 23 36 17 0 -0 -1 7 13 6 -2 -3 7 11 7 11 12 8 12 22 30 24 10 14 13 -5 -7 2 3 4 11 24 24 4 1 13 13 12 15 16 20 18 12 11 12 12 13 13 13 14
18 19 21 19 14 14 17 19 24 23 12 9 11 7 10 11 6 20 25 9 11 18 8 0 -3 5 24 18 2 6 16 19 14 4 -1 1 6 9 6 18 33 18 0 3 7 7 8 6 -2 -4 9 13 6 11 12 6 15 29 32 24 14 15 11 -0 -4 -7 -6 3 5 13 25 14 5 15 19 21 26 24 23 21 15 9 7 8 9 8 10 14
19 20 16 11 14 17 18 21 23 17 9 8 9 8 7 1 -4 9 17 11 15 16 7 8 6 0 15 24 10 5 15 19 11 5 1 -2 5 12 7 15 34 23 0 1 10 7 3 5 2 -1 10 11 4 9 13 10 16 23 24 21 14 12 11 3 2 -2 -7 -0 2 1 13 17 8 4 5 8 12 12 15 17 10 -0 -4 2 8 8 8 10
13 16 10 9 17 18 16 23 21 8 4 6 5 1 -2 -5 -4 3 9 11 15 13 8 11 13 5 6 19 18 8 10 17 15 12 4 -7 3 18 11 13 32 26 -1 -6 6 5 1 11 20 13 8 7 5 5 9 14 17 13 13 18 10 4 8 7 8 12 3 -3 2 1 1 9 13 9 4 1 3 6 5 -1 -6 -6 0 6 9 11 11 11
15 14 9 11 15 14 17 25 16 1 3 6 1 -1 -1 1 5 6 9 12 11 13 13 12 15 12 5 13 18 9 7 13 14 15 8 -3 8 23 16 13 25 20 -1 -3 7 5 -0 11 25 19 7 5 4 2 7 18 20 9 5 15 14 1 -0 4 9 20 19 4 2 7 3 2 5 4 -1 -5 -4 -5 -10 -10 -1 7 12 11 7 9 15 17
13 8 9 11 11 11 12 14 8 2 6 8 7 10 9 8 9 8 9 12 13 16 16 13 17 17 8 10 14 12 12 11 11 17 12 4 11 20 16 14 16 8 1 7 10 2 -2 6 14 13 7 6 6 2 7 20 23 10 -2 4 14 12 7 7 9 16 21 12 6 11 14 9 2 -2 2 6 7 9 8 11 15 14 13 14 11 11 17 21
Height
5729 5729 5729 5728 5728 5728 5729 5729 5730 5730 5731 5732 5733 5734 5734 5735 5736 5738 5739 5741 5742 5744 5746 5748 5751 5753 5755 5757 5760 5763 5765 5767 5770 5774 5777 5777 5777 5780 5782 5783 5785 5785 5787 5788 5790 5792 5793 5795 5798 5800 5803 5805 5807 5809 5811 5812 5814 5816 5818 5820 5824 5828 5830 5831 5832 5832 5833 5833 5834 5835 5837 5837 5838 5840 5842 5843 5845 5846 5847 5848 5849 5851 5851 5850 5851 5852 5851 5850
5725 5724 5724 5723 5723 5723 5723 5724 5724 5725 5726 5726 5727 5728 5729 5730 5731 5732 5734 5735 5737 5739 5741 5743 5745 5748 5750 5752 5755 5758 5760 5763 5765 5771 5773 5771 5772 5776 5778 5779 5781 5783 5784 5786 5787 5788 5790 5791 5793 5796 5799 5801 5803 5805 5808 5809 5811 5813 5815 5818 5822 5826 5827 5827 5827 5829 5830 5831 5832 5832 5833 5834 5836 5838 5838 5840 5843 5844 5844 5845 5847 5848 5849 5849 5849 5850 5849 5848
5720 5719 5719 5718 5718 5718 5718 5718 5718 5719 5720 5721 5722 5723 5724 5725 5726 5727 5728 5730 5732 5734 5736 5738 5740 5742 5745 5747 5750 5753 5755 5757 5761 5767 5767 5765 5768 5772 5775 5776 5778 5780 5781 5783 5784 5786 5787 5788 5791 5793 5795 5797 5799 5802 5804 5806 5808 5810 5812 5816 5820 5822 5823 5823 5824 5826 5826 5827 5828 5828 5831 5832 5835 5836 5835 5839 5841 5841 5842 5843 5845 5846 5846 5847 5847 5848 5847 5846
5715 5715 5714 5713 5713 5713 5713 5713 5713 5713 5714 5715 5716 5717 5718 5719 5721 5722 5723 5724 5726 5728 5730 5732 5735 5737 5740 5742 5745 5748 5750 5752 5757 5761 5761 5761 5764 5768 5771 5773 5774 5776 5778 5780 5782 5783 5785 5787 5789 5790 5792 5794 5796 5798 5801 5803 5805 5808 5810 5814 5817 5819 5820 5820 5820 5822 5822 5823 5825 5826 5828 5830 5833 5834 5833 5837 5839 5838 5841 5841 5842 5843 5843 5844 5845 5845 5845 5845
5711 5710 5709 5709 5708 5708 5708 5708 5708 5708 5708 5709 5710 5711 5713 5714 5715 5716 5718 5719 5720 5722 5725 5727 5729 5732 5734 5737 5740 5742 5745 5747 5751 5754 5755 5756 5760 5764 5766 5768 5771 5773 5775 5777 5779 5780 5782 5784 5786 5788 5790 5791 5793 5795 5798 5800 5802 5805 5808 5811 5813 5815 5816 5816 5817 5818 5818 5820 5821 5823 5826 5827 5831 5832 5830 5834 5836 5837 5839 5839 5840 5840 5840 5842 5843 5843 5843 5844
5707 5706 5705 5704 5703 5703 5702 5702 5702 5702 5703 5704 5704 5705 5706 5708 5709 5710 5712 5714 5715 5717 5719 5721 5723 5726 5729 5732 5734 5737 5740 5742 5745 5748 5750 5752 5755 5759 5761 5764 5767 5769 5771 5774 5776 5778 5780 5782 5784 5786 5787 5789 5790 5792 5794 5796 5799 5801 5805 5808 5811 5813 5812 5812 5814 5815 5816 5817 5818 5820 5823 5824 5828 5830 5827 5830 5835 5836 5836 5836 5837 5838 5839 5840 5840 5840 5841 5843
5702 5701 5700 5699 5699 5698 5697 5697 5697 5697 5698 5698 5699 5699 5700 5702 5703 5704 5706 5708 5710 5712 5714 5716 5718 5721 5723 5726 5729 5732 5734 5737 5739 5743 5746 5747 5750 5754 5757 5760 5763 5765 5768 5770 5773 5775 5776 5779 5781 5783 5785 5786 5788 5790 5791 5793 5795 5797 5801 5805 5808 5810 5809 5810 5812 5812 5813 5814 5816 5818 5819 5822 5827 5828 5826 5829 5833 5833 5832 5834 5834 5835 5837 5837 5838 5838 5840 5842
5698 5697 5696 5695 5694 5693 5693 5692 5692 5692 5692 5693 5694 5694 5695 5696 5697 5698 5700 5702 5705 5707 5709 5711 5713 5716 5718 5721 5723 5727 5730 5732 5733 5736 5740 5742 5745 5749 5753 5755 5758 5761 5764 5767 5769 5771 5773 5775 5778 5780 5782 5784 5786 5787 5788 5789 5791 5794 5798 5802 5805 5806 5806 5807 5808 5809 5810 5811 5814 5815 5817 5820 5825 5825 5825 5828 5831 5830 5830 5831 5832 5834 5834 5835 5836 5837 5838 5840
5693 5692 5691 5690 5689 5688 5688 5687 5687 5687 5687 5688 5688 5689 5689 5690 5691 5692 5694 5697 5699 5701 5704 5705 5708 5710 5713 5716 5718 5723 5726 5725 5726 5730 5734 5738 5740 5743 5747 5750 5754 5757 5759 5762 5765 5767 5770 5773 5775 5777 5779 5781 5783 5784 5785 5786 5789 5792 5795 5798 5802 5804 5804 5805 5806 5806 5807 5809 5811 5814 5815 5819 5822 5822 5823 5825 5828 5828 5828 5829 5829 5831 5832 5833 5834 5835 5837 5838
5688 5687 5686 5685 5684 5683 5683 5682 5682 5682 5682 5682 5683 5683 5684 5684 5685 5686 5688 5691 5693 5696 5698 5700 5703 5705 5708 5710 5713 5719 5719 5718 5721 5725 5729 5733 5735 5738 5742 5745 5749 5752 5755 5758 5761 5764 5767 5770 5771 5773 5776 5777 5780 5781 5782 5784 5786 5789 5791 5794 5798 5800 5801 5802 5803 5804 5805 5806 5809 5811 5814 5817 5819 5819 5820 5822 5825 5826 5827 5827 5827 5828 5830 5831 5833 5834 5835 5836
5682 5681 5681 5680 5679 5679 5678 5677 5677 5677 5677 5677 5678 5678 5679 5679 5680 5681 5683 5685 5687 5690 5692 5695 5697 5700 5703 5705 5710 5714 5712 5713 5717 5720 5723 5727 5731 5733 5737 5740 5744 5747 5750 5754 5757 5761 5763 5765 5767 5769 5772 5774 5777 5779 5780 5782 5784 5786 5788 5790 5793 5795 5796 5798 5799 5800 5801 5803 5806 5808 5811 5815 5817 5817 5817 5819 5822 5824 5824 5824 5825 5826 5828 5830 5832 5833 5834 5835
5676 5675 5675 5674 5674 5673 5673 5672 5672 5672 5672 5672 5673 5673 5674 5674 5675 5676 5678 5679 5681 5684 5686 5689 5691 5695 5697 5701 5707 5707 5705 5708 5711 5714 5718 5722 5726 5729 5732 5736 5740 5744 5746 5750 5753 5756 5759 5760 5762 5765 5769 5771 5774 5775 5777 5780 5781 5783 5786 5788 5790 5791 5792 5794 5796 5797 5798 5800 5803 5806 5809 5813 5815 5815 5815 5816 5819 5822 5822 5821 5823 5824 5826 5829 5831 5832 5832 5833
5670 5669 5669 5668 5668 5668 5667 5667 5667 5667 5667 5667 5668 5668 5668 5669 5670 5671 5673 5674 5676 5678 5680 5683 5686 5689 5691 5698 5702 5699 5699 5703 5705 5710 5714 5717 5721 5724 5727 5731 5735 5740 5742 5745 5748 5751 5754 5756 5758 5762 5765 5768 5770 5772 5774 5777 5778 5780 5783 5785 5787 5788 5789 5791 5793 5794 5795 5797 5800 5804 5808 5811 5814 5814 5813 5813 5815 5819 5820 5819 5820 5822 5824 5827 5829 5829 5829 5831
5663 5663 5662 5662 5662 5662 5662 5661 5661 5661 5662 5662 5662 5662 5663 5664 5665 5666 5668 5669 5671 5672 5675 5677 5680 5683 5687 5694 5695 5692 5694 5697 5701 5707 5709 5712 5716 5719 5723 5726 5729 5734 5738 5741 5743 5746 5749 5751 5754 5757 5760 5764 5766 5769 5771 5773 5774 5776 5778 5781 5784 5785 5788 5789 5791 5792 5794 5795 5798 5802 5806 5809 5812 5812 5811 5811 5811 5815 5817 5817 5818 5820 5823 5825 5826 5827 5827 5829
5657 5656 5656 5656 5655 5655 5655 5655 5655 5656 5656 5656 5657 5657 5658 5659 5660 5661 5663 5664 5666 5668 5669 5671 5675 5677 5682 5688 5687 5686 5689 5693 5699 5702 5703 5707 5711 5715 5719 5721 5724 5728 5732 5736 5738 5742 5744 5746 5750 5753 5757 5760 5762 5765 5767 5769 5771 5773 5775 5778 5781 5783 5786 5788 5789 5791 5792 5794 5797 5800 5803 5806 5809 5809 5809 5808 5808 5811 5814 5814 5817 5820 5822 5823 5824 5825 5826 5827
5651 5650 5649 5649 5649 5649 5649 5649 5649 5650 5650 5650 5651 5652 5652 5653 5654 5655 5657 5659 5660 5663 5664 5666 5669 5673 5677 5680 5680 5682 5685 5690 5694 5696 5698 5703 5707 5712 5715 5716 5719 5723 5727 5731 5733 5736 5739 5742 5746 5749 5752 5755 5758 5760 5763 5765 5767 5770 5772 5776 5779 5782 5785 5787 5788 5789 5791 5792 5795 5798 5801 5804 5805 5805 5806 5806 5806 5808 5810 5811 5815 5819 5820 5821 5822 5823 5824 5825
5643 5644 5643 5641 5642 5642 5642 5642 5642 5643 5644 5644 5645 5646 5646 5647 5648 5650 5651 5653 5655 5657 5659 5662 5665 5668 5671 5673 5674 5677 5680 5683 5687 5690 5693 5697 5703 5707 5710 5712 5715 5717 5721 5725 5728 5731 5734 5738 5742 5745 5748 5751 5754 5756 5758 5760 5763 5766 5770 5773 5777 5780 5783 5785 5786 5788 5789 5791 5793 5796 5798 5801 5802 5802 5803 5804 5805 5806 5807 5809 5814 5817 5818 5819 5820 5821 5823 5824
5635 5637 5636 5635 5634 5635 5635 5635 5636 5636 5637 5638 5639 5639 5640 5641 5642 5644 5646 5647 5649 5652 5654 5657 5660 5662 5664 5666 5667 5670 5674 5677 5680 5683 5687 5690 5695 5700 5704 5707 5709 5712 5715 5719 5723 5727 5730 5734 5737 5740 5744 5746 5749 5751 5754 5757 5761 5764 5768 5772 5775 5778 5781 5783 5785 5786 5787 5788 5790 5793 5796 5798 5799 5799 5800 5802 5803 5803 5805 5808 5812 5815 5816 5816 5818 5819 5821 5822
5628 5629 5629 5628 5627 5627 5628 5628 5629 5629 5630 5631 5632 5633 5634 5635 5636 5638 5640 5642 5644 5646 5648 5651 5654 5657 5659 5660 5662 5665 5669 5672 5674 5677 5681 5684 5688 5693 5698 5700 5702 5706 5710 5714 5719 5722 5725 5728 5731 5735 5739 5742 5746 5748 5752 5756 5759 5762 5767 5770 5772 5775 5778 5781 5783 5783 5784 5786 5788 5791 5793 5795 5796 5796 5798 5800 5800 5800 5802 5806 5809 5811 5813 5814 5815 5817 5818 5819
5620 5620 5621 5620 5620 5620 5620 5621 5622 5622 5623 5624 5625 5626 5627 5628 5630 5631 5634 5636 5639 5640 5643 5646 5649 5652 5654 5656 5658 5661 5665 5667 5670 5673 5676 5680 5683 5686 5691 5694 5697 5701 5705 5710 5714 5718 5721 5723 5726 5732 5737 5740 5743 5746 5750 5754 5757 5760 5764 5767 5769 5772 5774 5778 5780 5779 5781 5783 5785 5788 5790 5792 5793 5794 5795 5797 5797 5797 5799 5803 5806 5808 5811 5812 5813 5815 5816 5818
5611 5611 5612 5612 5612 5612 5612 5613 5614 5615 5616 5617 5618 5619 5620 5622 5623 5626 5628 5631 5633 5635 5637 5640 5643 5647 5649 5650 5653 5657 5660 5663 5666 5669 5672 5676 5678 5680 5685 5688 5692 5696 5701 5706 5710 5713 5715 5719 5724 5730 5734 5738 5741 5744 5747 5751 5755 5758 5761 5764 5766 5768 5770 5773 5775 5776 5778 5781 5784 5786 5787 5788 5791 5792 5792 5793 5794 5794 5797 5801 5804 5806 5809 5810 5811 5812 5814 5815
5602 5603 5603 5604 5604 5604 5605 5606 5606 5608 5609 5610 5611 5612 5613 5615 5617 5620 5622 5625 5627 5629 5631 5634 5637 5642 5643 5644 5647 5651 5655 5658 5661 5664 5667 5671 5674 5677 5680 5684 5688 5692 5696 5700 5704 5707 5710 5716 5722 5726 5730 5734 5737 5740 5743 5748 5752 5754 5757 5760 5763 5765 5768 5770 5771 5772 5774 5778 5782 5784 5785 5786 5789 5791 5790 5790 5791 5793 5796 5800 5802 5804 5807 5808 5809 5811 5812 5813
5593 5594 5595 5595 5595 5596 5597 5598 5599 5600 5601 5602 5604 5605 5607 5608 5611 5614 5616 5619 5622 5623 5625 5628 5630 5635 5637 5637 5641 5645 5650 5653 5656 5659 5662 5666 5671 5674 5677 5680 5684 5688 5691 5695 5700 5704 5707 5713 5718 5721 5726 5730 5733 5736 5740 5744 5748 5750 5753 5756 5759 5763 5765 5767 5769 5770 5771 5775 5780 5782 5782 5784 5787 5788 5788 5788 5789 5791 5794 5796 5799 5801 5804 5806 5807 5808 5809 5810
5584 5584 5585 5586 5586 5588 5589 5590 5592 5592 5594 5595 5597 5599 5601 5603 5605 5608 5610 5613 5616 5617 5619 5622 5625 5629 5631 5632 5635 5640 5644 5648 5651 5654 5657 5661 5666 5670 5674 5678 5680 5683 5688 5693 5697 5700 5705 5710 5715 5719 5722 5726 5730 5733 5736 5740 5744 5746 5749 5753 5757 5761 5764 5766 5767 5767 5769 5772 5776 5778 5779 5782 5784 5785 5785 5785 5786 5788 5790 5793 5796 5798 5800 5802 5804 5806 5807 5809
5574 5574 5576 5577 5578 5579 5581 5583 5584 5584 5586 5589 5590 5593 5595 5597 5599 5602 5604 5606 5610 5611 5613 5617 5621 5623 5623 5626 5631 5635 5638 5642 5646 5649 5652 5657 5661 5666 5670 5673 5676 5681 5687 5690 5693 5697 5701 5707 5712 5716 5719 5723 5727 5730 5733 5737 5741 5744 5747 5750 5755 5760 5762 5763 5764 5765 5766 5769 5772 5773 5775 5779 5782 5783 5783 5783 5784 5786 5788 5792 5794 5796 5797 5799 5802 5804 5806 5809
5563 5564 5566 5567 5568 5570 5572 5574 5575 5577 5580 5582 5584 5587 5589 5591 5593 5596 5598 5600 5603 5606 5608 5612 5614 5614 5617 5623 5628 5630 5633 5639 5642 5644 5648 5652 5656 5660 5664 5668 5674 5679 5683 5686 5689 5693 5698 5703 5708 5712 5716 5720 5724 5727 5731 5735 5738 5741 5745 5749 5753 5757 5759 5760 5760 5762 5764 5767 5770 5772 5773 5776 5779 5780 5780 5781 5782 5785 5787 5790 5792 5793 5794 5797 5800 5802 5805 5808
5551 5552 5554 5557 5559 5561 5563 5565 5567 5570 5572 5575 5577 5581 5583 5585 5588 5591 5593 5594 5597 5601 5603 5605 5607 5609 5614 5620 5622 5625 5630 5634 5636 5639 5644 5648 5651 5654 5658 5663 5670 5675 5678 5680 5684 5690 5695 5699 5703 5708 5712 5716 5720 5724 5728 5731 5734 5738 5744 5747 5750 5754 5756 5757 5758 5759 5762 5764 5767 5770 5772 5775 5777 5778 5778 5780 5781 5783 5785 5787 5789 5790 5791 5794 5797 5800 5803 5807
5538 5540 5542 5545 5548 5551 5554 5557 5560 5562 5565 5568 5571 5575 5577 5580 5583 5586 5588 5590 5592 5595 5598 5599 5602 5606 5610 5613 5617 5622 5626 5628 5630 5635 5640 5643 5647 5651 5655 5660 5666 5671 5674 5677 5682 5689 5692 5695 5700 5704 5707 5712 5717 5722 5726 5728 5731 5738 5743 5745 5748 5752 5754 5755 5756 5758 5760 5760 5761 5767 5770 5772 5774 5775 5776 5778 5780 5781 5782 5784 5786 5787 5789 5791 5795 5799 5802 5805
5524 5527 5530 5533 5537 5542 5545 5549 5552 5555 5558 5562 5566 5570 5572 5575 5578 5580 5583 5586 5588 5590 5592 5594 5597 5601 5605 5609 5614 5618 5620 5622 5626 5631 5636 5639 5643 5648 5653 5658 5662 5666 5669 5674 5680 5684 5688 5692 5697 5701 5705 5710 5715 5719 5723 5725 5730 5737 5740 5742 5745 5748 5750 5752 5754 5755 5756 5756 5757 5763 5767 5768 5769 5772 5773 5775 5777 5778 5779 5781 5783 5785 5787 5790 5794 5797 5800 5803
5511 5514 5517 5522 5526 5532 5536 5540 5544 5548 5552 5556 5561 5564 5566 5570 5573 5575 5578 5581 5583 5585 5587 5589 5593 5597 5601 5605 5609 5613 5616 5618 5621 5626 5631 5634 5638 5643 5649 5653 5656 5659 5664 5670 5674 5679 5685 5689 5693 5698 5703 5708 5713 5717 5720 5722 5728 5734 5736 5739 5742 5744 5747 5750 5751 5752 5752 5753 5754 5759 5764 5765 5766 5768 5769 5772 5775 5776 5777 5778 5780 5783 5786 5789 5793 5795 5798 5801
5499 5502 5506 5510 5516 5523 5527 5531 5537 5542 5545 5550 5555 5558 5561 5564 5567 5570 5574 5577 5579 5580 5582 5585 5588 5592 5597 5601 5605 5609 5611 5613 5616 5621 5625 5628 5632 5636 5640 5643 5648 5653 5659 5664 5669 5675 5679 5683 5688 5695 5699 5704 5709 5713 5717 5720 5725 5730 5732 5735 5738 5741 5744 5746 5748 5748 5748 5750 5754 5758 5761 5762 5764 5765 5767 5769 5772 5774 5775 5777 5780 5783 5786 5788 5791 5794 5796 5798
5488 5491 5496 5501 5507 5513 5518 5523 5530 5535 5539 5545 5549 5552 5555 5559 5563 5567 5570 5573 5575 5576 5578 5581 5584 5588 5592 5596 5600 5604 5607 5609 5612 5616 5619 5623 5627 5631 5635 5638 5643 5649 5655 5661 5667 5671 5675 5680 5686 5691 5695 5699 5703 5707 5711 5714 5719 5724 5727 5730 5733 5737 5740 5741 5743 5743 5744 5748 5753 5755 5758 5760 5761 5762 5765 5767 5769 5771 5774 5777 5779 5782 5784 5786 5789 5792 5794 5795
5479 5483 5488 5494 5499 5504 5510 5516 5523 5529 5535 5540 5543 5547 5551 5555 5560 5563 5566 5569 5571 5573 5575 5579 5582 5585 5588 5592 5595 5599 5603 5606 5609 5612 5615 5619 5624 5628 5633 5637 5642 5648 5654 5659 5663 5666 5672 5677 5681 5685 5690 5695 5699 5703 5706 5709 5713 5718 5721 5724 5727 5731 5733 5736 5738 5739 5742 5747 5750 5752 5756 5758 5758 5760 5763 5766 5768 5770 5772 5775 5777 5779 5781 5784 5787 5790 5791 5792
5472 5477 5482 5487 5492 5497 5504 5510 5517 5524 5529 5534 5538 5542 5547 5553 5557 5559 5563 5566 5568 5570 5573 5577 5580 5583 5586 5589 5592 5595 5599 5602 5605 5608 5611 5615 5620 5624 5628 5633 5638 5646 5651 5655 5658 5663 5667 5672 5676 5680 5686 5691 5695 5699 5704 5708 5712 5716 5719 5722 5725 5727 5730 5733 5736 5738 5741 5745 5748 5750 5752 5753 5755 5758 5760 5763 5765 5767 5770 5772 5775 5777 5780 5782 5785 5788 5789 5790
5468 5473 5478 5483 5487 5492 5499 5505 5511 5518 5523 5528 5533 5538 5545 5550 5553 5556 5560 5564 5566 5569 5572 5575 5578 5581 5584 5586 5588 5592 5596 5599 5602 5605 5608 5612 5617 5621 5626 5630 5636 5641 5645 5650 5656 5661 5666 5671 5676 5679 5683 5688 5692 5696 5701 5706 5710 5714 5718 5720 5723 5726 5729 5732 5736 5738 5741 5745 5746 5747 5747 5749 5752 5756 5758 5760 5761 5763 5766 5769 5772 5775 5778 5781 5783 5785 5786 5787
5465 5471 5478 5482 5485 5489 5495 5501 5507 5513 5519 5523 5528 5536 5543 5547 5550 5554 5558 5562 5565 5568 5570 5573 5577 5579 5581 5583 5586 5589 5594 5597 5600 5602 5605 5610 5615 5620 5624 5629 5633 5638 5642 5647 5653 5659 5664 5669 5674 5677 5681 5686 5689 5694 5698 5701 5706 5710 5713 5717 5721 5725 5728 5731 5735 5737 5740 5742 5743 5744 5744 5746 5749 5752 5755 5757 5757 5759 5761 5765 5768 5772 5775 5778 5780 5782 5783 5784
5466 5472 5478 5482 5484 5488 5493 5498 5503 5509 5514 5520 5527 5535 5540 5543 5547 5552 5557 5560 5564 5567 5569 5572 5575 5577 5579 5581 5584 5588 5591 5594 5597 5600 5604 5608 5612 5617 5622 5626 5631 5636 5641 5646 5651 5656 5662 5667 5671 5674 5678 5682 5687 5692 5695 5699 5703 5707 5710 5716 5720 5722 5725 5729 5732 5734 5737 5739 5740 5741 5742 5745 5747 5748 5751 5753 5755 5756 5758 5761 5765 5769 5772 5774 5777 5779 5780 5781
5469 5474 5478 5480 5482 5486 5491 5496 5500 5505 5511 5518 5527 5533 5536 5540 5546 5551 5556 5560 5563 5566 5569 5571 5574 5576 5577 5579 5582 5585 5589 5592 5595 5598 5602 5607 5611 5615 5619 5624 5628 5634 5640 5644 5648 5653 5659 5664 5668 5671 5675 5680 5683 5688 5691 5695 5700 5703 5708 5715 5717 5719 5722 5725 5727 5730 5733 5735 5736 5737 5740 5742 5744 5745 5749 5753 5754 5756 5759 5761 5764 5767 5770 5771 5773 5775 5776 5778
5473 5476 5478 5480 5482 5486 5490 5494 5499 5504 5509 5517 5525 5530 5534 5539 5545 5550 5555 5559 5562 5565 5569 5571 5574 5576 5577 5578 5579 5583 5587 5591 5594 5597 5601 5605 5610 5614 5618 5621 5626 5631 5637 5641 5646 5651 5656 5661 5665 5669 5674 5678 5680 5683 5687 5691 5695 5698 5703 5709 5714 5717 5720 5722 5724 5727 5730 5731 5732 5733 5736 5738 5740 5743 5748 5752 5753 5755 5758 5760 5762 5765 5767 5768 5770 5772 5773 5775
5476 5477 5479 5481 5483 5486 5490 5494 5498 5503 5509 5518 5525 5529 5534 5539 5544 5549 5554 5557 5561 5565 5568 5570 5573 5575 5577 5579 5580 5582 5585 5589 5593 5598 5601 5605 5609 5614 5617 5621 5624 5629 5635 5640 5644 5649 5653 5658 5663 5667 5671 5674 5675 5679 5684 5687 5691 5695 5699 5704 5709 5713 5716 5720 5722 5725 5727 5729 5729 5730 5732 5735 5738 5741 5745 5748 5750 5752 5754 5757 5759 5761 5763 5765 5766 5768 5771 5773
5477 5478 5480 5482 5485 5488 5492 5495 5500 5505 5512 5519 5525 5529 5534 5539 5544 5549 5553 5557 5560 5564 5567 5569 5572 5574 5576 5579 5581 5582 5584 5587 5591 5595 5600 5605 5609 5613 5616 5620 5624 5628 5633 5637 5641 5646 5650 5656 5661 5665 5667 5670 5672 5677 5684 5688 5691 5695 5699 5702 5706 5709 5713 5716 5718 5721 5725 5727 5728 5729 5732 5735 5738 5740 5743 5745 5747 5750 5752 5754 5756 5757 5759 5761 5763 5766 5768 5770
5479 5480 5482 5484 5487 5490 5494 5499 5503 5508 5514 5520 5525 5529 5533 5539 5544 5549 5554 5557 5560 5563 5566 5569 5571 5574 5576 5578 5581 5583 5584 5586 5589 5593 5598 5603 5608 5613 5616 5619 5623 5628 5632 5636 5640 5645 5649 5653 5659 5662 5665 5669 5673 5678 5684 5688 5691 5694 5697 5701 5704 5707 5710 5713 5715 5719 5722 5724 5726 5728 5731 5734 5736 5738 5741 5743 5745 5748 5750 5752 5753 5754 5756 5758 5761 5764 5765 5767
5483 5484 5486 5488 5490 5493 5497 5502 5506 5511 5516 5521 5525 5529 5534 5540 5546 5550 5554 5557 5559 5561 5564 5567 5570 5573 5575 5578 5581 5583 5584 5586 5589 5593 5598 5602 5606 5611 5614 5618 5622 5626 5631 5636 5640 5644 5647 5651 5656 5660 5662 5667 5673 5679 5683 5686 5688 5690 5693 5697 5701 5704 5707 5710 5714 5718 5720 5721 5723 5725 5728 5730 5733 5736 5738 5741 5743 5745 5747 5749 5750 5752 5754 5756 5758 5760 5762 5764
5488 5489 5491 5494 5496 5498 5502 5506 5510 5514 5518 5522 5526 5530 5535 5540 5545 5549 5552 5555 5557 5559 5562 5565 5568 5571 5574 5577 5580 5582 5584 5585 5589 5593 5597 5602 5606 5609 5611 5615 5619 5624 5628 5634 5639 5642 5645 5649 5653 5657 5659 5663 5669 5674 5677 5680 5682 5685 5689 5693 5698 5702 5705 5708 5712 5715 5717 5718 5720 5723 5724 5727 5730 5733 5735 5738 5740 5742 5744 5746 5747 5749 5751 5753 5755 5757 5759 5760
5493 5495 5497 5499 5501 5504 5507 5511 5514 5517 5520 5524 5527 5532 5536 5541 5544 5547 5550 5553 5555 5557 5560 5564 5567 5571 5574 5576 5579 5582 5584 5586 5589 5592 5597 5602 5605 5608 5611 5613 5616 5622 5628 5634 5638 5641 5645 5648 5650 5653 5657 5659 5663 5666 5670 5673 5677 5681 5685 5690 5695 5699 5702 5705 5708 5711 5713 5715 5718 5719 5721 5724 5728 5730 5732 5735 5737 5739 5741 5743 5745 5747 5749 5751 5752 5754 5755 5757
5499 5500 5502 5504 5506 5508 5511 5514 5517 5520 5523 5526 5530 5534 5537 5541 5544 5547 5549 5551 5553 5556 5560 5564 5568 5571 5573 5576 5579 5582 5585 5587 5590 5593 5597 5602 5604 5607 5610 5611 5614 5621 5627 5632 5636 5639 5643 5646 5649 5652 5656 5660 5663 5666 5670 5673 5676 5678 5681 5686 5692 5696 5699 5702 5705 5707 5710 5713 5715 5716 5718 5722 5725 5727 5730 5732 5735 5737 5738 5740 5743 5745 5746 5748 5749 5750 5751 5753
5504 5505 5506 5507 5510 5512 5515 5517 5519 5522 5525 5528 5532 5535 5539 5541 5544 5547 5550 5553 5555 5558 5561 5564 5567 5570 5573 5575 5578 5581 5584 5587 5590 5593 5597 5601 5604 5606 5609 5611 5613 5618 5624 5629 5633 5637 5640 5644 5648 5652 5656 5660 5662 5666 5669 5672 5674 5676 5679 5683 5689 5694 5697 5699 5701 5704 5707 5710 5712 5713 5716 5719 5722 5725 5727 5730 5732 5734 5736 5738 5740 5741 5743 5745 5746 5747 5748 5749
5507 5509 5510 5511 5514 5516 5518 5520 5523 5525 5528 5531 5534 5538 5541 5544 5546 5549 5552 5556 5559 5561 5562 5564 5567 5570 5572 5574 5577 5580 5582 5585 5589 5593 5597 5600 5603 5606 5609 5611 5613 5616 5621 5627 5631 5636 5640 5644 5647 5651 5654 5657 5660 5663 5666 5669 5671 5674 5678 5682 5687 5691 5694 5696 5699 5701 5704 5707 5710 5712 5714 5717 5720 5722 5725 5727 5729 5731 5732 5734 5736 5738 5740 5741 5742 5743 5744 5745
5511 5513 5514 5516 5518 5520 5522 5525 5527 5530 5533 5535 5538 5541 5544 5547 5549 5551 5554 5557 5559 5561 5563 5565 5567 5569 5572 5574 5577 5579 5582 5585 5589 5593 5597 5600 5603 5606 5609 5612 5614 5617 5621 5626 5630 5634 5638 5642 5646 5649 5652 5654 5658 5662 5664 5666 5669 5672 5676 5680 5685 5688 5691 5693 5696 5699 5702 5705 5707 5710 5713 5715 5717 5719 5722 5724 5726 5728 5729 5730 5732 5734 5736 5738 5739 5740 5741 5741
5515 5517 5518 5520 5522 5524 5527 5529 5532 5535 5537 5540 5542 5544 5547 5549 5551 5553 5555 5557 5558 5561 5563 5565 5567 5570 5572 5575 5577 5579 5582 5585 5588 5592 5595 5598 5601 5605 5608 5611 5614 5617 5620 5624 5628 5632 5635 5639 5644 5647 5649 5652 5656 5659 5662 5664 5667 5670 5674 5678 5682 5685 5687 5690 5693 5695 5699 5701 5704 5707 5709 5711 5713 5716 5719 5721 5723 5725 5726 5728 5730 5731 5732 5734 5735 5735 5737 5738
5519 5520 5522 5523 5526 5528 5531 5533 5536 5539 5541 5543 5545 5547 5550 5551 5553 5554 5555 5557 5559 5561 5563 5565 5567 5570 5573 5575 5578 5580 5582 5585 5589 5591 5594 5597 5600 5604 5608 5610 5613 5616 5619 5622 5625 5629 5633 5637 5641 5645 5648 5651 5654 5657 5659 5662 5665 5668 5672 5675 5679 5682 5684 5687 5689 5692 5695 5697 5699 5702 5705 5708 5711 5713 5715 5718 5720 5722 5724 5725 5726 5727 5729 5730 5731 5732 5733 5735
5524 5525 5526 5527 5529 5532 5534 5537 5540 5542 5544 5546 5548 5550 5551 5553 5554 5555 5556 5558 5560 5562 5563 5565 5567 5570 5573 5576 5578 5580 5583 5586 5589 5591 5594 5596 5599 5603 5606 5609 5611 5614 5617 5620 5623 5627 5631 5635 5639 5643 5646 5649 5652 5655 5658 5661 5663 5667 5670 5672 5676 5679 5681 5684 5687 5689 5692 5694 5697 5700 5703 5707 5709 5711 5713 5715 5717 5719 5721 5722 5723 5724 5726 5728 5728 5729 5730 5731